Simultaneous Nadir Overpasses (SNOs) Predictions

Prediction of SNOs between NOAA-20 and AQUA Satellite Orbit:

Table of predicted SNOs for the next 14.0 days since TLE Epoch: 11/30/2024
Index Date (NOAA-20) Time (NOAA-20) Lat,Lon (NOAA-20) SZA (NOAA-20 ) Date (AQUA) Time (AQUA) Lat,Lon (AQUA) SZA (AQUA ) Distance(km) Time Diff (sec)
1 12/01/2024 14:50:35 81.32,-114.14 108.56 12/01/2024 14:51:41 81.31,-114.04 108.51 1.65 66
2 12/01/2024 15:41:19 -81.32, 53.57 71.49 12/01/2024 15:41:01 -81.32, 53.73 71.50 2.69 18
3 12/04/2024 02:02:55 81.32, 78.16 108.89 12/04/2024 02:03:23 81.32, 78.15 108.87 0.17 28
4 12/04/2024 02:53:39 -81.32,-114.09 71.17 12/04/2024 02:52:43 -81.32,-114.09 71.14 0.31 56
5 12/06/2024 12:24:31 -81.32, 102.82 70.80 12/06/2024 12:25:43 -81.32, 102.74 70.82 1.40 72
6 12/06/2024 13:15:15 81.32, -89.65 109.19 12/06/2024 13:15:02 81.33, -89.52 109.18 2.48 13
7 12/08/2024 23:36:50 -81.32, -65.06 70.53 12/08/2024 23:37:19 -81.32, -65.14 70.54 1.39 29
8 12/09/2024 00:27:34 81.32, 102.43 109.46 12/09/2024 00:26:38 81.32, 102.59 109.47 2.66 56
9 12/11/2024 09:58:25 81.32, -40.50 109.73 12/11/2024 09:59:33 81.32, -40.60 109.70 1.72 68
10 12/11/2024 10:49:10 -81.32, 126.97 70.30 12/11/2024 10:48:53 -81.33, 127.14 70.31 2.97 17
11 12/13/2024 21:10:45 81.32, 151.38 109.94 12/13/2024 21:11:05 81.32, 151.45 109.92 1.15 20



Historial Predications of SNOs between NOAA-20 and AQUA
